Regional Weather Roundup
Issued by NWS

Home | Current Version | Previous Version | Graphics & Text | Print | Product List | Glossary On
Versions: 1 2 3 4 5 6 7 8 9 10 11 12 13 14 15 16 17 18 19 20 21 22 23 24 25 26 27 28 29 30 31 32 33 34 35 36 37 38 39 40 41 42 43 44 45 46 47 48 49 50
000
ASUS43 KDMX 021207
RWRIA

WEATHER ROUNDUP FOR IOWA
NATIONAL WEATHER SERVICE DES MOINES IA
700 AM CDT TUE SEP 02 2014

NOTE: "FAIR" INDICATES FEW OR NO CLOUDS BELOW 12,000 FEET WITH NO
SIGNIFICANT WEATHER AND/OR OBSTRUCTIONS TO VISIBILITY.

* - THESE STATIONS ARE NOT NWS STATIONS...THUS NOT UNDER NWS
QUALITY CONTROL.  THEY ALSO DO NOT REPORT WEATHER SUCH
AS PRECIPITATION OR FOG.

IAZ001>003-012>014-020>022-031>034-043>046-021300-
   NORTHWEST IOWA

CITY           SKY/WX    TMP DP  RH WIND       PRES   REMARKS
CARROLL *      CLEAR     55  54  94 W5        29.95R
CHEROKEE *     CLEAR     55  55 100 CALM      29.94S
DENISON *      CLEAR     55  55 100 CALM      29.93R FOG
LE MARS *      CLEAR     55  55 100 CALM      29.94S
ORANGE CITY *  CLEAR     54  52  94 CALM      29.94S FOG
SHELDON *      CLEAR     54  54 100 W3        29.92S
SIOUX CITY     CLEAR     54  53  97 S3        29.95
6HR MIN TEMP:  54; 6HR MAX TEMP:  62; 6HR PCP:  0.06;

SPENCER        CLEAR     54  53  97 SW5       29.93R
6HR MIN TEMP:  54; 6HR MAX TEMP:  63; 6HR PCP:  0.01;

STORM LAKE *   CLEAR     54  54 100 W7        29.94R
$$

IAZ055>058-069>071-079>083-090>094-021300-
   SOUTHWEST IOWA

CITY           SKY/WX    TMP DP  RH WIND       PRES   REMARKS
ATLANTIC *     CLEAR     55  54  94 CALM      29.96R
AUDUBON *      CLEAR     57  55  94 CALM      29.96R
CLARINDA *     FOG       59  59 100 CALM      29.96S VSB 3/4
COUNCIL BLFS * CLEAR     57  57 100 NW5       29.95R
CRESTON *      CLEAR     59  59 100 W5        29.94S
HARLAN  *      MOCLDY    54  54 100 CALM      29.99R
LAMONI         PTCLDY    60  59  96 NW6       29.95R FOG
6HR MIN TEMP:  60; 6HR MAX TEMP:  66;

RED OAK *      CLEAR     59  59 100 W6        29.95R
SHENANDOAH *   CLEAR     57  57 100 SW5       29.96R FOG
$$

IAZ047>049-059>061-072>074-084-021300-
   CENTRAL IOWA

CITY           SKY/WX    TMP DP  RH WIND       PRES   REMARKS
AMES           PTCLDY    59  58  96 SW3       29.93R
6HR MIN TEMP:  59; 6HR MAX TEMP:  65;

ANKENY *       PTCLDY    63  59  88 CALM      29.93R
CHARITON *     PTCLDY    61  61 100 W3        29.93S
DES MOINES     PTCLDY    62  58  86 NW5       29.92R
6HR MIN TEMP:  61; 6HR MAX TEMP:  67;

GRINNELL*      PTCLDY    61  59  94 NW5       29.94R
KNOXVILLE *    CLEAR     61  59  94 NW3       29.92R
MARSHALLTOWN   MOCLDY    61  59  93 N7        29.92R
6HR MIN TEMP:  60; 6HR MAX TEMP:  64;

PELLA *        CLEAR     60  60  99 NW3       29.94R FOG
PERRY *          N/A     55  55 100 S3        29.94R
$$

IAZ004>006-015-016-023>025-035-036-021300-
   NORTH CENTRAL IOWA

CITY           SKY/WX    TMP DP  RH WIND       PRES   REMARKS
ALGONA *       CLEAR     57  57 100 CALM      29.92S
CLARION *      CLEAR     57  57 100 E3        29.92S
ESTHERVILLE    CLOUDY    56  55  97 SW7       29.92R
6HR MIN TEMP:  55; 6HR MAX TEMP:  61;

FORT DODGE *   PTCLDY    57  55  94 CALM      29.93S
MASON CITY     MOCLDY    59  57  93 N7        29.92F
6HR MIN TEMP:  56; 6HR MAX TEMP:  64; 6HR PCP:  0.20;

FOREST CITY *  CLEAR     57  57 100 CALM      29.92S
IOWA FALLS *   DRIZZLE   61  57  88 N3        29.94R
$$

IAZ007>011-017>019-026>030-037>042-050>054-066-021300-
   NORTHEAST IOWA

CITY           SKY/WX    TMP DP  RH WIND       PRES   REMARKS
CEDAR RAPIDS     N/A     61  60  97 NW6       29.90R
6HR MIN TEMP:  59; 6HR MAX TEMP:  63;

CHARLES CITY * CLOUDY    59  57  94 N7        29.93S
CLINTON *      PTCLDY    63  59  88 W5        29.92R
DECORAH *      RAIN      59  57  94 NW6G13    29.93R
DUBUQUE        CLOUDY    60  59  96 CALM      29.90R
6HR MIN TEMP:  57; 6HR MAX TEMP:  63;

MONTICELLO *   CLOUDY    61  61 100 W5        29.90R
OELWEIN *      CLOUDY    61  59  94 NW8       29.95R
WATERLOO       LGT RAIN  59  57  93 MISG      29.91R
6HR MIN TEMP:  57; 6HR MAX TEMP:  64; 6HR PCP:  0.13;

$$

IAZ064-065-067-068-078-021300-
   EAST CENTRAL IOWA

CITY           SKY/WX    TMP DP  RH WIND       PRES   REMARKS
DAVENPORT      PTCLDY    60  59  96 NW3       29.90R FOG
6HR MIN TEMP:  57; 6HR MAX TEMP:  67;

IOWA CITY      PTCLDY    60  59  96 CALM      29.91R
6HR MIN TEMP:  59; 6HR MAX TEMP:  65;

MT. PLEASANT * FOG       62  61  97 CALM      29.90R VSB 1
MUSCATINE *    FOG       61  61 100 CALM      29.89S VSB 0
QUAD CITIES    PTCLDY    61  60  97 CALM      29.90R FOG
6HR MIN TEMP:  60; 6HR MAX TEMP:  70;

$$

IAZ062-063-075>077-085>089-095>099-021300-
   SOUTHEAST IOWA

CITY           SKY/WX    TMP DP  RH WIND       PRES   REMARKS
BURLINGTON     MOCLDY    65  65 100 NW3       29.90R FOG
6HR MIN TEMP:  64; 6HR MAX TEMP:  69; 6HR PCP: TRACE;

FAIRFIELD *    FOG       61  61 100 CALM      29.91R VSB 0
FORT MADISON * FOG       64  64 100 CALM      29.91R VSB 0
KEOKUK *       CLOUDY    68  68 100 CALM      29.89R FOG
OSKALOOSA *      N/A     60  59  98 NW6       29.92R
CENTERVILLE *  CLEAR     59  59 100 NW5       29.95R
OTTUMWA        PTCLDY    62  61  96 NW8       29.91S
6HR MIN TEMP:  59; 6HR MAX TEMP:  65;

WASHINGTON *   FOG       59  59 100 CALM      29.90R VSB 0
$$

ABBREVIATIONS USED IN REMARKS
   TC - TEMPERATURES IN CELSIUS
  WCI - WIND CHILL INDEX
   HX - HEAT INDEX
  VSB - VISIBILITY
$$




USA.gov is the U.S. government's official web portal to all federal, state and local government web resources and services.